Current weather by "City, St" or "zip code"  
 

Current Conditions: Cook Municipal Airport, MN

Fair


27.0 F

Last Updated on Sep 18 2020, 1:55 am CDT
Humidity: 100%
Wind Speed: N 0.0 mph
Barometer 30.37 in
Dewpoint: 26.6 F
Visibility: 10.00 mi
Precip: --
Heat Index: NA
Wind Chill: NA
Current conditions at:

Cook Municipal Airport, MN (KCQM)

Lat: 47.81997 Lon: 92.68169

Local Radar Image active severe weather and emergency alerts image image weather storm and storm spotter reports image weather observation monitoring service image
Local
Radar
Active
Alerts
Storm Reports Obs
Monitoring

Sign-up For Email & Text Message Weather Alert Notification Services



Advertise Here

Observation History for Cook Municipal Airport, MN


Time Wind
(mph)
Vis
(mi)
Weather Precip (in) Temperature (F) Relative
Humidity
Wind
Chill
(F)
Heat
Index
(F)
Pressure
Air Dwpt altimeter
(in)
sea level
(mb)
Rmks
1:55 am CDT N 0.0 10.00 Fair -- 27.0 26.6 100% NA NA 30.37 M
12:55 am CDT N 0.0 10.00 Fair -- 28.0 26.6 93% NA NA 30.37 M
11:55 pm CDT N 0.0 10.00 Fair -- 28.0 28.4 100% NA NA 30.37 M
10:55 pm CDT N 0.0 10.00 Fair -- 30.0 30.2 100% NA NA 30.36 M
9:55 pm CDT N 0.0 10.00 Fair -- 32.0 30.2 93% NA NA 30.35 M
8:55 pm CDT N 0.0 10.00 Fair -- 36.0 32.0 87% NA NA 30.34 M
7:55 pm CDT N 0.0 10.00 Fair -- 39.0 32.0 75% NA NA 30.32 M
6:55 pm CDT N 0.0 10.00 Fair -- 45.0 30.2 57% NA NA 30.30 M
5:55 pm CDT NW 5.8 10.00 Overcast -- 52.0 24.8 35% 50 NA 30.29 M
4:55 pm CDT N 5.8 10.00 Partly Cloudy -- 54.0 24.8 33% 53 NA 30.29 M
3:55 pm CDT NW 5.8 10.00 Fair -- 54.0 23.0 30% 53 NA 30.29 M
2:55 pm CDT W 6.9 10.00 Fair -- 52.0 21.2 30% 50 NA 30.30 M
1:55 pm CDT NW 3.5 10.00 Fair -- 52.0 21.2 30% NA NA 30.30 M
12:55 pm CDT N 0.0 10.00 Fair -- 50.0 21.2 32% NA NA 30.31 M
11:55 am CDT W 4.6 10.00 Fair -- 48.0 24.8 40% 46 NA 30.32 M
10:55 am CDT N 3.5 10.00 Fair -- 46.0 26.6 46% NA NA 30.32 M
9:55 am CDT N 0.0 10.00 Fair -- 43.0 32.0 66% NA NA 30.32 M
6:35 am CDT N 0.0 10.00 Fair -- 27.0 26.6 100% NA NA 30.28 M
5:55 am CDT N 0.0 10.00 Fair -- 27.0 26.6 100% NA NA 30.27 M
4:55 am CDT N 0.0 10.00 Fair -- 28.0 26.6 93% NA NA 30.26 M
3:55 am CDT N 0.0 10.00 Fair -- 28.0 26.6 93% NA NA 30.25 M
2:55 am CDT N 0.0 10.00 Fair -- 28.0 28.4 100% NA NA 30.24 M

Regional Weather Observation


Cook Municipal Airport, MN (KCQM)

Fair
27.0 F

Crane Lake - Scotts Seaplane Base, MN (KCDD)

Fair
27.0 F

Bigfork Municipal Airport, MN (KFOZ)

Fair
27.0 F

Chisholm-Hibbing Airport, MN (KHIB)

Fair
26.0 F

Falls International Airport, MN (KINL)

Fair
25.0 F

Eveleth-Virginia Municipal Airport, MN (KEVM)

Fair
27.0 F